STARLINK-32488, 62125

Orbit data source: Space-Track

STARLINK-32488, 62125 is a payload satellite owned by SpaceX/Seattle (US) in LEO that was launched on Wed, 27 Nov 2024 UTC via an FALCON 9 launch vehicle from the Air Force Eastern Test Range (AFETR). Payload-class satellites include a variety of spacecraft equipped with specific instruments for various scientific and technological missions. These include communications satellites like Starlink; space stations such as the ISS; scientific satellites like the Hubble; Earth observation satellites from companies like Planet Labs, Umbra, and HawkEye 360; GPS; miniature CubeSats for education and research; and military/defense satellites.

Loading next visibility...
Identifier
62125, 2024-222M
Orbit
LEO
Country
Flag of USUS
Related business
Manufacturer
SpaceX/Seattle
Mission
Operational Commercial Communications
Bus & Motor
STARLINK V2M, Unknown motor
Mass
730 kg wet, ~700 kg dry
Launch date (UTC)
2024-11-27 (2 years ago)
Launch vehicle
FALCON 9
Launch site
Air Force Eastern Test Range (AFETR)
Object type
Payload
Rocket body
Debris
Shape & HBR
Box + 2 Pan, 17.7 m
Radar Cross Section
33.884 m², Large (>1 m²)

Expand to show TLE details & history
Last TLE update: 12 hours ago

TLE from 12 hours ago
0 STARLINK-32488
1 62125U 24222M   26171.33785435  .00018872  00000-0  69312-3 0  9993
2 62125  42.9998 276.8280 0001550 266.4327  93.6348 15.27600401 88345
Epoch: 2026-06-20T08:06Z
TLE epoch observation values (Epoch: 2026-06-20T08:06:30.615Z)
Latitude
0.00001°
Longitude
-113.35347°
Altitude
482.831 km
Speed
7.626 km/s
True Right ascension
18h 27m 18s
True Declination
0° 00' 00"
Sunlit
Object was in full shadow at epoch
Visualization orbit readout
Latitude
Unknown
Longitude
Unknown
Altitude
Unknown
Speed
Unknown
Apparent Right ascension
Unknown
Apparent Declination
Unknown
Sunlit
N/A
Visualization observer readout
Local Sidereal Time
07:18:01
Azimuth
Unknown
Elevation
Unknown
Doppler factor
Unknown
Orbital elements
Apogee altitude
485.997 km
Perigee altitude
483.869 km
Semi-major axis
6,863.07 km
Eccentricity
0.00016
Inclination
42.9998°
RAAN
276.828°
Arg. of periapsis
266.4327°
True anomaly
93.65253°
Mean anomaly
93.6348°
Eccentric anomaly
93.64366°
Mean motion
3.81738 °/min
Orbital period
94.31 mins
BSTAR
0.00069312
Loading maneuver chart data...
Computing Atmospheric mass density...
Loading historical data...
Loading historical data...
Loading historical data...
Loading historical data...
Loading historical data...
Loading historical data...
Loading historical data...

Documentation

Showing up to 5 results
|